TIARET current weather conditions

sailwx.info

Air temperature 23.0° C
Dewpoint 8.0° C

Last reported at 2015-Jun-30 01:00 UTC.
Time now 2015-Jun-30 03:33 UTC

Location: N 35°15' E 001°26'.
View on Google Maps.

See reports from other nearby stations

  
Tides and Currents Weather Stations Pressure Air Temp Water Temp Dewpoint Dewpoint Depression Visibility Wind Speed Wind Dir Waves Ship Positions
date/time (UTC)wind fromknots sea level pressurealtimeterstation pressurevisibilityair tempwater tempwave heightnotes
2015-Jun-30 02:00 080 4 22.0
2015-Jun-30 01:00 23.0
2015-Jun-30 00:00 080 10 24.0
2015-Jun-29 23:00 080 10 25.0
2015-Jun-29 22:00 26.0
2015-Jun-29 21:00 080 8 27.0
2015-Jun-29 20:00 080 8 29.0
2015-Jun-29 19:00 080 6 33.0
2015-Jun-29 18:00 080 10 35.0
2015-Jun-29 17:00 080 6 36.0
2015-Jun-29 16:00 020 6 36.0
2015-Jun-29 15:00 090 4 36.0
2015-Jun-29 14:00 090 4 36.0
2015-Jun-29 13:00 030 11 36.0
2015-Jun-29 12:00 040 10 35.0
2015-Jun-29 11:00 070 7 34.0
2015-Jun-29 10:00 080 7 33.0
2015-Jun-29 09:00 080 6 31.0
2015-Jun-29 08:00 080 11 29.0
2015-Jun-29 07:00 060 9 24.0
2015-Jun-29 05:00 18.0
2015-Jun-29 03:00 19.0
2015-Jun-29 02:00 320 4 20.0
2015-Jun-29 01:00 20.0
2015-Jun-29 00:00 320 4 21.0
2015-Jun-28 23:00 320 4 22.0
2015-Jun-28 22:00 25.0
2015-Jun-28 21:00 310 6 26.0
2015-Jun-28 20:00 300 7 27.0
2015-Jun-28 19:00 320 11 32.0
2015-Jun-28 18:00 330 9 34.0
2015-Jun-28 17:00 320 10 35.0
2015-Jun-28 16:00 050 7 35.0
2015-Jun-28 15:00 330 9 36.0
2015-Jun-28 14:00 020 6 35.0
2015-Jun-28 13:00 030 6 35.0
2015-Jun-28 12:00 060 7 24.0
2015-Jun-28 11:00 030 7 32.0
2015-Jun-28 10:00 050 7 30.0
2015-Jun-28 09:00 350 6 27.0
2015-Jun-28 08:00 310 5 25.0
2015-Jun-28 07:00 22.0
2015-Jun-28 06:00 16.0
2015-Jun-28 05:00 15.0
2015-Jun-28 04:00 16.0
2015-Jun-28 03:00 16.0